Temp
67 66 66 65 65 65 65 65 65 65 64 64 63 63 63 63 62 61 61 61 60 60 60 60 60 59 59 58 57 57 55 53 53 52 51 50 48 48 48 47 46 45
67 66 65 65 65 65 66 66 65 65 65 64 63 62 62 61 61 61 61 60 59 59 59 59 58 58 58 58 56 55 52 51 51 51 50 48 47 47 46 45 45 45
67 66 66 65 65 65 65 66 65 65 64 64 63 62 61 60 60 60 60 60 58 57 57 57 57 56 57 56 55 53 51 51 50 48 48 46 45 45 44 44 44 44
66 66 66 66 66 65 65 64 63 64 63 62 62 62 62 61 59 59 59 56 58 56 56 56 56 56 55 55 54 52 52 51 48 47 45 45 44 44 43 44 43 42
64 65 65 65 65 64 63 64 63 63 63 63 62 63 61 60 59 58 57 55 56 55 54 55 55 55 54 53 53 51 49 46 45 45 44 43 43 43 42 42 41 40
61 62 62 62 62 62 61 62 62 62 62 61 62 61 61 60 59 57 56 55 54 54 54 54 54 53 52 51 50 48 45 44 44 44 42 41 41 41 42 41 40 39
59 59 59 60 59 60 60 60 61 60 61 62 59 60 60 58 57 57 56 55 54 53 53 53 52 51 50 50 47 45 44 43 42 42 41 39 39 39 38 39 39 38
55 55 57 58 59 57 59 59 59 59 59 57 57 57 56 57 56 55 54 54 53 53 53 52 52 51 49 48 46 45 44 44 42 40 39 37 38 38 37 39 38 37
54 54 54 54 54 54 55 56 56 56 56 57 56 54 54 55 54 53 53 53 53 52 52 51 51 49 49 48 47 46 44 43 41 39 39 38 38 37 38 37 37 37
52 52 52 51 53 54 54 54 53 54 54 55 54 53 52 51 52 53 52 51 51 50 50 49 48 47 47 47 47 45 44 42 40 39 39 38 38 37 37 37 37 36
50 50 52 53 54 54 53 52 51 51 52 54 52 52 52 50 49 49 50 50 50 49 49 48 47 47 47 46 45 44 43 42 40 39 38 38 38 38 38 37 36 36
49 49 50 51 52 51 51 50 49 48 50 49 51 51 49 49 49 48 48 49 49 49 48 47 46 46 46 45 44 43 41 40 39 39 38 38 37 37 37 37 37 36
47 47 48 48 48 48 47 46 46 44 47 47 46 48 47 46 45 47 46 48 48 47 46 45 45 44 42 44 43 43 41 39 39 38 38 37 37 37 37 36 36 36
45 45 46 46 44 43 43 42 41 41 42 41 41 44 44 44 45 45 44 44 45 46 46 44 44 43 43 43 43 43 41 39 39 38 37 37 36 36 36 36 36 36
45 45 44 41 41 41 41 41 41 40 39 40 40 40 42 42 43 44 42 42 42 42 43 42 43 43 43 43 42 41 40 39 39 38 37 36 35 35 35 35 35 35
42 42 42 40 40 40 39 39 39 39 39 39 40 40 40 40 41 41 42 43 42 41 41 41 42 43 40 41 42 42 41 39 38 38 37 36 35 34 33 34 33 33
39 38 37 38 38 38 37 38 38 38 38 38 38 38 39 38 39 40 40 40 41 42 42 42 43 42 40 43 43 43 41 39 38 37 36 36 35 35 33 33 31 31
37 37 37 37 37 37 37 37 36 37 37 37 37 37 37 37 38 39 39 39 39 39 40 42 42 40 42 43 43 43 41 40 38 37 36 36 35 34 34 33 31 30
37 37 37 36 36 36 36 36 36 36 36 36 37 36 36 37 38 38 38 37 38 39 38 38 39 40 42 43 43 43 42 40 38 37 36 35 35 34 33 32 31 30
37 37 37 37 36 36 35 35 35 36 35 35 35 35 37 37 36 37 37 37 37 38 37 37 37 39 42 42 42 42 42 40 37 37 36 36 35 34 34 32 31 30
37 37 36 36 36 35 35 35 35 35 35 35 36 36 36 37 37 36 37 37 36 36 36 36 38 39 41 42 42 42 42 40 37 36 36 35 35 35 34 33 32 32
37 37 36 36 35 35 35 35 35 35 35 35 35 35 36 36 36 36 36 36 36 36 36 35 35 39 41 41 42 42 42 36 36 35 35 34 34 34 34 33 33 32
37 37 36 35 35 35 34 34 35 35 35 35 35 35 35 35 35 36 36 36 35 35 35 35 35 38 40 41 41 42 39 35 34 34 34 34 34 34 33 33 33 32
37 37 35 35 34 34 34 34 34 35 35 35 35 35 35 35 35 35 35 35 35 36 36 35 35 36 39 40 41 41 38 35 35 34 32 32 32 32 32 32 32 32
37 37 36 35 35 34 35 34 34 34 35 35 35 35 35 35 35 35 35 35 35 35 35 36 35 35 38 39 40 40 38 34 34 33 31 31 30 30 30 30 31 31
37 36 35 35 35 34 34 35 35 34 34 34 34 35 35 35 35 35 34 35 35 35 35 35 35 35 36 39 39 40 38 35 34 33 31 29 29 29 27 27 27 28
MSLP
1015.05 1015.21 1015.41 1015.59 1015.65 1015.75 1015.93 1016.09 1016.21 1016.45 1016.59 1016.75 1017.05 1017.21 1017.35 1017.51 1017.93 1018.21 1018.51 1018.89 1019.23 1019.45 1019.59 1019.85 1020.19 1020.53 1020.87 1021.21 1021.47 1021.73 1022.01 1022.23 1022.47 1022.67 1022.89 1023.09 1023.35 1023.57 1023.81 1024.03 1024.23 1024.35
1014.55 1014.71 1014.93 1015.11 1015.27 1015.37 1015.43 1015.47 1015.65 1015.83 1016.05 1016.25 1016.53 1016.89 1017.25 1017.61 1017.89 1018.05 1018.31 1018.61 1018.91 1019.13 1019.21 1019.53 1019.87 1020.21 1020.61 1020.95 1021.23 1021.53 1021.99 1022.25 1022.45 1022.71 1022.91 1023.13 1023.39 1023.61 1023.91 1024.11 1024.33 1024.63
1014.05 1014.25 1014.43 1014.61 1014.69 1014.85 1015.01 1015.13 1015.35 1015.55 1015.77 1016.01 1016.37 1016.77 1017.19 1017.47 1017.73 1017.89 1018.05 1018.21 1018.55 1018.89 1019.09 1019.35 1019.73 1020.05 1020.37 1020.71 1021.03 1021.41 1021.81 1022.15 1022.47 1022.75 1022.97 1023.29 1023.55 1023.73 1024.03 1024.27 1024.49 1024.65
1013.61 1013.67 1013.83 1014.01 1014.21 1014.45 1014.69 1014.99 1015.23 1015.41 1015.67 1016.01 1016.19 1016.43 1016.79 1017.19 1017.53 1017.81 1018.05 1018.31 1018.39 1018.69 1019.03 1019.35 1019.65 1019.99 1020.29 1020.61 1020.91 1021.37 1021.73 1022.03 1022.39 1022.75 1023.11 1023.55 1023.71 1023.85 1024.15 1024.35 1024.59 1024.89
1013.39 1013.51 1013.61 1013.77 1014.01 1014.27 1014.51 1014.73 1014.91 1015.07 1015.33 1015.57 1015.93 1016.23 1016.63 1017.05 1017.41 1017.79 1018.11 1018.43 1018.51 1018.69 1019.03 1019.33 1019.61 1019.89 1020.21 1020.61 1020.97 1021.45 1021.87 1022.27 1022.61 1022.85 1023.23 1023.61 1023.79 1023.93 1024.25 1024.37 1024.55 1024.85
1013.29 1013.43 1013.63 1013.83 1013.99 1014.17 1014.37 1014.47 1014.59 1014.81 1015.05 1015.35 1015.59 1015.97 1016.35 1016.75 1017.15 1017.55 1017.93 1018.29 1018.59 1018.75 1018.97 1019.29 1019.61 1019.95 1020.23 1020.57 1021.01 1021.49 1021.93 1022.33 1022.63 1022.87 1023.31 1023.69 1023.87 1024.07 1024.29 1024.45 1024.55 1024.85
1013.11 1013.27 1013.43 1013.57 1013.75 1013.87 1014.07 1014.23 1014.39 1014.61 1014.83 1015.03 1015.45 1015.79 1016.11 1016.57 1016.93 1017.27 1017.67 1017.99 1018.33 1018.61 1018.81 1019.17 1019.55 1020.01 1020.31 1020.67 1021.07 1021.57 1022.03 1022.29 1022.65 1022.93 1023.39 1023.87 1023.93 1024.13 1024.39 1024.51 1024.63 1024.91
1013.07 1013.15 1013.27 1013.41 1013.57 1013.73 1013.89 1014.05 1014.21 1014.41 1014.61 1014.95 1015.21 1015.55 1015.87 1016.31 1016.69 1017.07 1017.41 1017.75 1018.05 1018.35 1018.65 1018.99 1019.33 1019.65 1019.99 1020.29 1020.95 1021.59 1022.11 1022.41 1022.75 1023.07 1023.55 1023.93 1023.97 1024.13 1024.39 1024.59 1024.71 1024.91
1013.19 1013.29 1013.43 1013.51 1013.63 1013.73 1013.89 1014.03 1014.19 1014.37 1014.57 1014.81 1015.13 1015.49 1015.79 1016.11 1016.57 1016.99 1017.33 1017.61 1017.91 1018.15 1018.41 1018.83 1019.23 1019.71 1020.03 1020.09 1020.57 1021.13 1021.73 1022.27 1022.67 1022.97 1023.41 1023.71 1023.85 1024.09 1024.25 1024.53 1024.77 1024.97
1013.23 1013.37 1013.51 1013.63 1013.71 1013.79 1013.95 1014.11 1014.29 1014.45 1014.63 1014.85 1015.15 1015.59 1015.89 1016.27 1016.51 1016.87 1017.21 1017.51 1017.77 1018.05 1018.25 1018.59 1019.05 1019.45 1019.85 1020.09 1020.31 1020.77 1021.33 1021.93 1022.45 1022.75 1023.17 1023.41 1023.57 1023.91 1024.15 1024.31 1024.53 1024.97
1013.35 1013.49 1013.57 1013.73 1013.79 1013.89 1014.03 1014.23 1014.39 1014.59 1014.77 1014.91 1015.31 1015.61 1015.83 1016.21 1016.59 1016.83 1017.07 1017.35 1017.63 1017.87 1018.11 1018.41 1018.73 1019.03 1019.43 1019.93 1020.23 1020.51 1020.97 1021.53 1022.05 1022.37 1022.81 1023.19 1023.47 1023.65 1023.83 1024.03 1024.39 1024.57
1013.57 1013.69 1013.79 1013.85 1013.95 1014.07 1014.19 1014.37 1014.55 1014.73 1014.91 1015.07 1015.25 1015.51 1015.93 1016.17 1016.37 1016.77 1016.97 1017.21 1017.41 1017.69 1017.87 1018.15 1018.55 1018.81 1018.99 1019.41 1019.85 1020.37 1020.91 1021.41 1021.75 1022.03 1022.45 1022.95 1023.37 1023.59 1023.71 1023.87 1024.09 1024.53
1013.65 1013.75 1013.85 1013.93 1014.01 1014.05 1014.17 1014.35 1014.55 1014.81 1015.01 1015.23 1015.53 1015.63 1015.89 1016.29 1016.59 1016.69 1016.87 1016.97 1017.15 1017.37 1017.77 1018.15 1018.53 1018.85 1019.23 1019.45 1019.69 1020.07 1020.59 1021.13 1021.59 1021.87 1022.27 1022.77 1023.17 1023.41 1023.63 1023.81 1024.05 1024.37
1013.67 1013.79 1013.85 1013.97 1014.13 1014.31 1014.47 1014.65 1014.87 1015.07 1015.23 1015.51 1015.73 1015.85 1016.09 1016.25 1016.47 1016.69 1016.87 1017.03 1017.17 1017.13 1017.23 1017.67 1018.19 1018.61 1019.07 1019.31 1019.49 1019.87 1020.41 1020.91 1021.17 1021.45 1021.99 1022.57 1023.05 1023.37 1023.55 1023.73 1023.99 1024.29
1013.83 1013.93 1014.07 1014.17 1014.23 1014.33 1014.43 1014.61 1014.85 1015.09 1015.39 1015.59 1015.81 1015.99 1016.17 1016.29 1016.41 1016.61 1016.95 1017.15 1017.37 1017.61 1017.63 1017.71 1017.93 1018.27 1018.65 1018.91 1019.35 1019.89 1020.17 1020.63 1021.05 1021.25 1021.71 1022.37 1022.97 1023.35 1023.61 1023.79 1024.05 1024.29
1014.01 1014.13 1014.25 1014.43 1014.53 1014.53 1014.61 1014.77 1014.89 1015.11 1015.29 1015.49 1015.69 1015.91 1016.15 1016.41 1016.61 1016.79 1016.91 1016.99 1017.21 1017.57 1017.77 1017.83 1018.03 1018.25 1018.47 1018.63 1018.85 1019.31 1019.93 1020.41 1020.95 1021.23 1021.61 1022.15 1022.71 1023.25 1023.67 1023.91 1024.09 1024.31
1014.25 1014.41 1014.57 1014.55 1014.65 1014.83 1015.03 1015.13 1015.23 1015.39 1015.51 1015.67 1015.91 1016.11 1016.29 1016.53 1016.73 1016.91 1017.11 1017.29 1017.45 1017.59 1017.73 1017.81 1017.87 1018.09 1018.41 1018.79 1019.13 1019.43 1019.83 1020.15 1020.47 1021.07 1021.53 1022.01 1022.43 1022.77 1023.27 1023.81 1024.25 1024.55
1014.29 1014.49 1014.59 1014.73 1014.93 1015.01 1015.17 1015.35 1015.53 1015.61 1015.71 1015.91 1016.13 1016.25 1016.43 1016.61 1016.75 1016.93 1017.17 1017.39 1017.59 1017.83 1017.97 1017.93 1017.93 1017.97 1017.99 1018.35 1018.81 1019.27 1019.71 1020.01 1020.27 1020.67 1021.33 1021.81 1022.25 1022.59 1023.05 1023.53 1024.07 1024.55
1014.29 1014.37 1014.51 1014.69 1014.87 1015.03 1015.25 1015.45 1015.57 1015.75 1015.89 1016.05 1016.11 1016.35 1016.57 1016.63 1016.73 1016.95 1017.17 1017.45 1017.63 1017.83 1018.01 1018.11 1018.23 1018.45 1018.21 1018.29 1018.63 1019.09 1019.55 1019.97 1020.23 1020.43 1020.93 1021.55 1022.01 1022.39 1022.81 1023.29 1023.85 1024.35
1014.15 1014.25 1014.37 1014.61 1014.87 1015.07 1015.25 1015.35 1015.45 1015.51 1015.75 1015.97 1016.17 1016.39 1016.45 1016.63 1016.83 1016.91 1017.15 1017.35 1017.51 1017.69 1017.97 1018.23 1018.29 1018.47 1018.51 1018.63 1018.85 1019.15 1019.49 1019.85 1020.21 1020.41 1020.75 1021.21 1021.65 1022.07 1022.51 1023.01 1023.43 1023.83
1014.03 1014.15 1014.33 1014.67 1014.91 1015.11 1015.25 1015.33 1015.43 1015.63 1015.77 1015.89 1015.99 1016.13 1016.29 1016.41 1016.63 1016.85 1017.07 1017.29 1017.51 1017.71 1017.93 1018.25 1018.51 1018.53 1018.47 1018.69 1018.97 1019.27 1019.57 1019.93 1020.29 1020.57 1020.85 1021.23 1021.61 1021.89 1022.19 1022.57 1023.03 1023.39
1013.95 1014.21 1014.51 1014.83 1015.09 1015.29 1015.39 1015.51 1015.67 1015.75 1015.85 1016.05 1016.17 1016.33 1016.45 1016.59 1016.81 1017.03 1017.25 1017.45 1017.65 1017.81 1018.01 1018.19 1018.57 1018.73 1018.75 1018.91 1019.19 1019.41 1019.73 1020.21 1020.45 1020.63 1020.91 1021.23 1021.57 1021.87 1022.15 1022.45 1022.79 1023.11
1014.03 1014.31 1014.65 1014.97 1015.25 1015.43 1015.61 1015.77 1015.87 1015.97 1016.09 1016.21 1016.29 1016.43 1016.53 1016.63 1016.75 1016.91 1017.23 1017.51 1017.73 1017.91 1018.09 1018.35 1018.67 1018.79 1018.83 1018.99 1019.17 1019.33 1019.65 1020.15 1020.45 1020.73 1020.93 1021.15 1021.41 1021.71 1022.01 1022.33 1022.65 1022.93
1013.91 1014.17 1014.47 1014.85 1015.09 1015.15 1015.39 1015.71 1015.91 1016.03 1016.09 1016.11 1016.13 1016.31 1016.45 1016.61 1016.77 1017.01 1017.25 1017.45 1017.65 1017.83 1017.95 1018.15 1018.47 1018.63 1018.73 1018.91 1019.09 1019.15 1019.33 1019.71 1020.17 1020.51 1020.87 1021.09 1021.45 1021.77 1022.03 1022.31 1022.55 1022.75
1013.63 1013.97 1014.29 1014.63 1014.81 1015.01 1015.23 1015.43 1015.65 1015.81 1016.01 1016.11 1016.17 1016.29 1016.47 1016.71 1016.89 1017.07 1017.33 1017.53 1017.69 1017.85 1018.01 1018.19 1018.49 1018.73 1018.81 1018.89 1019.03 1019.19 1019.45 1019.71 1019.95 1020.33 1020.71 1021.13 1021.45 1021.85 1022.17 1022.39 1022.59 1022.75
1013.59 1013.87 1014.21 1014.49 1014.77 1015.13 1015.29 1015.39 1015.61 1015.79 1015.93 1016.03 1016.15 1016.25 1016.47 1016.69 1016.93 1017.13 1017.31 1017.53 1017.73 1017.91 1018.05 1018.21 1018.49 1018.81 1018.95 1018.97 1019.07 1019.27 1019.49 1019.69 1019.91 1020.11 1020.43 1020.93 1021.39 1021.65 1022.07 1022.49 1022.69 1022.81
Wind_Speed
12 11 11 11 11 11 11 12 11 12 12 11 11 11 12 10 9 10 10 9 9 10 10 10 9 8 9 9 8 7 6 7 6 5 6 7 6 7 6 6 5 5
14 13 11 10 10 10 10 11 10 12 12 11 9 9 8 8 8 10 11 11 10 10 10 10 10 10 10 9 8 8 7 7 7 3 6 6 6 7 6 6 6 6
12 12 13 13 12 12 12 10 9 9 9 9 7 8 8 8 9 9 10 11 11 10 9 10 9 9 9 8 8 7 8 8 7 5 6 6 6 7 6 6 6 6
13 13 13 13 12 11 10 8 8 8 7 8 9 9 9 8 9 10 9 9 10 10 9 9 10 9 8 8 7 6 8 7 7 6 6 5 5 7 6 6 6 7
11 12 11 10 9 7 7 9 9 9 10 9 8 8 9 10 10 10 9 8 8 9 9 9 9 9 9 8 7 7 7 7 6 7 7 6 6 7 6 7 8 8
6 7 7 7 7 7 8 8 8 8 9 9 10 8 9 9 9 10 10 10 8 9 9 9 9 8 8 9 8 7 7 7 7 7 7 7 6 6 6 7 8 9
7 6 7 6 7 8 8 8 7 8 8 7 6 8 8 9 9 10 10 11 10 10 11 10 10 9 8 8 7 7 7 7 7 8 8 6 7 7 5 6 7 8
4 4 5 6 7 7 7 7 7 8 7 6 7 7 8 9 10 9 9 10 10 10 10 10 10 11 11 10 10 9 7 6 8 9 8 7 7 7 7 6 7 9
0 1 1 3 4 5 5 5 5 5 5 7 7 6 6 8 9 8 9 9 9 10 11 10 10 9 8 10 10 11 11 9 8 10 10 9 9 8 8 7 8 8
2 3 3 4 5 4 4 4 4 4 5 6 6 6 7 5 7 9 9 9 10 10 10 10 10 10 9 9 11 12 12 11 10 10 9 9 10 9 9 9 10 9
3 3 4 5 5 4 4 4 4 4 4 6 7 8 8 8 7 6 9 9 10 11 11 11 11 11 12 10 9 10 12 12 11 10 10 9 9 9 9 10 10 10
3 3 4 4 4 4 4 4 4 4 5 5 7 9 7 7 9 8 9 10 9 9 9 9 9 10 12 12 12 11 10 10 10 10 10 9 8 8 8 8 10 9
2 3 2 2 2 3 3 3 4 4 5 5 4 6 9 8 6 8 8 10 11 10 10 10 9 8 8 10 11 11 12 11 10 10 9 8 7 8 7 7 8 8
3 2 2 2 2 2 3 3 3 3 4 3 4 6 6 8 9 9 8 7 8 10 11 10 11 10 10 10 11 12 11 10 11 11 11 9 8 7 7 7 7 7
2 1 1 2 3 3 4 4 5 5 4 5 4 4 5 6 6 7 7 7 6 6 7 9 11 11 10 11 11 11 11 11 11 11 12 11 8 7 6 7 6 6
3 4 3 3 2 3 3 4 4 4 5 5 5 5 5 4 5 5 7 8 9 8 7 8 9 8 10 16 15 13 12 10 10 10 11 11 11 9 7 6 7 6
3 3 3 3 3 3 3 3 4 4 4 4 4 4 4 4 5 5 6 5 6 9 10 9 9 9 15 15 15 16 12 11 12 11 10 11 11 11 11 9 7 6
4 4 4 3 3 3 3 3 3 4 4 4 4 4 4 4 5 5 5 4 4 4 5 6 7 11 19 19 18 18 14 12 11 11 10 10 10 10 9 9 9 8
5 5 5 4 4 4 4 4 4 4 4 5 6 4 4 5 6 6 6 5 6 6 6 5 4 9 15 18 18 19 17 13 9 11 12 11 10 10 10 10 9 8
5 6 5 5 5 5 5 5 5 5 4 4 4 4 6 6 4 6 5 6 7 7 6 5 5 11 15 16 17 18 18 13 9 11 10 11 11 11 10 10 10 10
6 6 6 5 5 5 5 4 4 5 5 5 5 6 6 7 6 6 7 6 6 6 6 5 5 11 15 16 16 17 16 11 8 7 8 8 8 9 10 11 11 9
6 6 5 5 5 5 4 4 4 4 5 4 4 3 3 4 3 3 5 5 6 6 5 6 4 11 13 14 15 16 15 7 7 8 8 8 8 8 8 8 8 9
6 6 5 5 4 4 4 4 4 4 4 3 4 4 4 5 5 4 4 5 5 5 6 5 5 10 14 15 16 18 12 7 7 7 7 9 9 8 8 8 8 8
6 7 6 6 6 6 5 4 3 3 4 4 6 6 6 5 4 4 4 5 6 7 7 8 7 11 15 16 17 18 13 10 9 8 8 8 7 6 6 6 7 11
7 7 6 6 6 6 6 6 6 5 4 4 4 4 4 4 4 4 4 3 4 4 6 6 5 8 14 16 17 17 12 7 8 8 9 7 7 7 5 6 6 8
5 6 5 6 5 4 4 5 5 5 5 5 4 4 4 4 4 4 5 4 4 4 5 5 6 6 9 15 14 15 9 8 7 9 10 9 7 8 8 5 5 5
Wind_Direction
205 204 204 203 203 200 199 200 197 196 199 197 193 195 193 188 172 176 175 171 178 178 172 169 171 168 165 166 164 156 158 159 164 155 158 151 153 156 156 151 139 131
205 204 204 204 206 203 205 203 199 196 197 196 192 188 188 178 183 181 179 178 179 182 172 167 168 163 163 166 163 154 150 152 164 158 155 153 157 149 151 146 134 124
208 206 204 205 205 204 204 203 199 197 194 193 178 176 177 183 187 191 188 182 176 175 169 164 162 161 159 160 162 151 156 156 161 161 149 155 148 144 144 135 130 129
212 210 208 208 206 204 202 197 196 196 189 183 189 181 179 184 186 191 192 188 176 170 168 163 163 160 159 157 155 146 159 158 155 145 137 137 145 137 143 134 126 120
212 214 212 209 206 202 194 200 196 193 193 193 183 183 179 181 187 188 187 189 181 166 164 164 161 159 154 151 150 142 142 141 145 139 139 151 153 143 149 138 134 126
211 211 209 203 200 196 197 202 198 189 189 186 186 177 185 183 184 186 183 180 176 168 164 162 160 155 152 149 146 148 146 145 152 141 144 155 151 142 146 143 134 131
200 199 201 195 195 197 198 200 197 189 189 183 158 181 176 179 184 186 181 179 172 170 166 165 158 155 155 148 145 147 150 148 148 147 148 154 145 140 140 139 135 132
194 194 194 195 198 197 199 193 191 186 180 167 176 175 170 178 182 184 178 177 175 170 169 167 166 164 163 154 149 148 148 149 149 147 149 154 147 147 146 146 138 135
219 241 232 215 198 203 199 195 190 178 169 174 174 169 174 173 177 174 175 175 174 170 166 164 163 162 165 156 154 154 154 157 157 154 157 160 157 158 155 147 138 140
241 229 228 227 222 215 207 199 186 177 168 171 165 162 169 168 169 173 173 175 172 171 167 165 163 159 160 163 159 156 155 159 160 158 161 165 160 160 158 154 149 143
228 221 218 225 227 215 215 194 183 174 176 175 162 171 172 161 169 171 175 173 174 175 172 171 171 165 163 161 159 157 156 158 162 159 160 163 166 164 161 155 156 156
228 224 225 225 219 208 201 191 175 172 182 177 171 169 166 173 171 175 177 179 177 179 178 173 167 167 163 162 155 151 151 156 158 156 155 157 161 164 162 161 157 156
208 229 230 242 245 228 202 184 179 171 167 174 178 169 169 175 182 178 186 180 179 170 168 165 163 159 158 156 152 153 154 155 155 151 149 151 160 160 160 154 151 152
184 165 164 155 120 108 117 122 125 139 155 147 156 168 176 179 176 184 187 182 187 182 171 161 162 160 162 161 157 156 156 159 157 152 148 147 149 151 151 149 149 153
188 214 131 112 128 129 136 143 148 148 143 150 165 178 185 188 182 170 162 165 165 174 165 164 165 167 164 162 157 159 158 157 158 151 147 146 145 144 141 139 141 145
182 182 182 143 127 145 153 151 152 154 156 165 177 179 174 169 167 169 175 174 169 170 170 162 166 168 173 168 164 161 162 156 153 151 149 150 149 144 141 142 143 139
132 132 130 157 165 148 141 142 142 140 143 148 146 146 153 160 161 165 179 175 174 174 174 177 172 171 166 168 167 162 159 160 156 155 152 154 156 155 155 151 141 135
146 141 142 145 140 155 154 150 141 145 151 146 141 145 149 141 161 174 171 173 170 181 194 191 189 176 168 168 167 167 167 164 158 154 156 158 161 159 155 152 150 148
149 154 155 155 158 151 148 136 140 139 143 154 170 163 140 160 176 161 171 167 168 175 188 185 172 182 172 168 167 168 168 164 161 156 156 162 162 161 158 156 154 153
160 159 162 162 152 146 143 145 154 165 162 155 142 144 165 168 163 171 165 172 177 177 179 184 173 181 176 172 170 169 167 162 162 160 159 161 163 162 161 161 163 163
162 163 158 153 150 146 147 155 159 153 157 164 164 171 173 178 176 176 178 171 169 166 164 176 191 184 175 173 171 169 166 156 155 153 154 157 161 162 164 166 169 170
160 158 146 141 143 147 152 157 161 166 164 156 146 146 138 129 134 145 164 173 171 163 161 169 170 186 177 175 172 168 159 149 155 155 155 158 159 165 166 169 168 168
153 147 145 145 146 147 159 164 164 165 156 148 148 157 158 163 172 169 162 161 164 166 169 166 162 184 180 178 176 169 156 154 156 155 157 159 167 167 168 165 171 171
152 152 153 155 159 170 170 167 157 152 161 165 164 165 173 175 159 148 156 167 172 181 180 175 179 186 182 182 181 177 168 161 161 158 160 161 160 162 158 166 171 172
157 155 158 161 172 174 165 165 170 166 155 153 154 151 150 138 144 151 156 168 180 181 175 174 174 187 189 187 185 180 169 163 158 156 159 167 160 159 160 162 170 169
151 153 158 165 169 160 162 163 150 143 155 154 146 145 144 146 147 153 165 179 173 179 180 176 169 182 195 192 191 183 164 163 164 161 172 168 168 167 165 179 175 174